Regional Weather Roundup
Issued by NWS

Home | Current Version | Previous Version | Text Only | Print | Product List | Glossary On
Versions: 1 2 3 4 5 6 7 8 9 10 11 12 13 14 15 16 17 18 19 20 21 22 23 24 25 26 27 28 29 30 31 32 33 34 35 36 37 38 39 40 41 42 43 44 45 46 47 48 49 50
000
ASUS43 KLSX 262010
RWRMO

WEATHER SUMMARY FOR MISSOURI
NATIONAL WEATHER SERVICE SPRINGFIELD MO
300 PM CDT THU MAY 26 2016

NOTE: "FAIR" INDICATES FEW OR NO CLOUDS BELOW 12,000 FEET WITH NO
       SIGNIFICANT WEATHER AND/OR OBSTRUCTIONS TO VISIBILITY.
       CURRENT SKY AND/OR WEATHER CONDITIONS ARE NOT AVAILABLE FOR
       CHILLICOTHE AND FARMINGTON.

MOZ001>031-035>038-043-044-053-054-262100-
...NORTHERN AND WESTERN MISSOURI...

CITY           SKY/WX    TMP DP  RH WIND       PRES   REMARKS
KANSAS CTY INT TSTM      72  62  71 E20       29.77F
KANSAS C DTWN  FAIR      77  66  68 E12       29.75F
LEE`S SUMMIT   FAIR      82  70  66 SE14      29.82F
ST JOSEPH      TSTM      72  63  73 S9        29.80R
CHILLICOTHE      N/A     74  66  76 CALM      29.81F
KIRKSVILLE     FAIR      77  63  61 S13       29.86F

$$
MOZ066>068-077>081-088>096-101>105-262100-
...SOUTHWEST MISSOURI...

CITY           SKY/WX    TMP DP  RH WIND       PRES   REMARKS
SPRINGFIELD    FAIR      88  71  57 S15       29.87F HX  94
JOPLIN         FAIR      86  72  62 S21G26    29.83F HX  92
BRANSON        CLOUDY    84  72  65 S14       29.93S

$$
MOZ032>034-039>042-045>050-055>058-069>072-262100-
...CENTRAL MISSOURI...

CITY           SKY/WX    TMP DP  RH WIND       PRES   REMARKS
COLUMBIA       FAIR      87  62  43 NW3       29.89F
JEFFERSON CITY FAIR      86  67  52 S7        29.88F
ROLLA          FAIR      82  69  64 SE9       29.91F
SEDALIA        FAIR      85  69  58 NE9       29.87F
WHITEMAN AFB   PTSUNNY   79  62  56 E9        29.84F
WARRENSBURG    FAIR      79  61  53 E12G17    29.84F

$$
MOZ051-052-059>065-262100-
...EAST CENTRAL MISSOURI...

CITY           SKY/WX    TMP DP  RH WIND       PRES   REMARKS
ST LOUIS INTL  PTSUNNY   79  65  62 SW8       29.94R
SPIRIT OF STL  FAIR     N/A N/A N/A SW12      29.93R
ST CHARLES     FAIR      78  67  68 S7        29.93R

$$
MOZ072>076-082>087-097>100-106>115-262100-
...SOUTH CENTRAL AND SOUTHEAST MISSOURI...

CITY           SKY/WX    TMP DP  RH WIND       PRES   REMARKS
CAPE GIRARDEAU LGT RAIN  66  64  93 SE12      30.02R FOG
FARMINGTON     FAIR      67  65  93 VRB5      29.96R
POPLAR BLUFF   CLOUDY    70  66  87 NE13G35   30.00R
WEST PLAINS    FAIR      84  70  62 S13       29.95S

$$



USA.gov is the U.S. government's official web portal to all federal, state and local government web resources and services.